DG1UDO-13 Weather Reports


Display with metric or nautical units.
time (UTC)temp
F
wind
direction
speed
MPH
gust
MPH
rain 1hr
in
rain 24hr
in
rain mn
in
humidity
%
barometer
mb
20260507083500 51 64 5.0 0.0 0.00 0.00 0.00 74 1016.0
20260507080500 49 71 1.0 0.0 0.00 0.00 0.00 78 1015.8
20260507073500 50 107 7.0 0.0 0.00 0.00 0.00 76 1015.5
20260507070500 48 78 6.0 0.0 0.00 0.00 0.00 80 1015.2
20260507063500 47 79 3.0 0.0 0.00 0.00 0.00 84 1015.0
20260507060500 46 44 3.0 0.0 0.00 0.00 0.00 87 1014.8
20260507053500 46 50 4.0 0.0 0.00 0.00 0.00 88 1014.4
20260507050500 46 48 2.0 0.0 0.00 0.00 0.00 88 1014.1
20260507043500 46 77 2.0 0.0 0.00 0.00 0.00 87 1014.0
20260507040500 46 65 1.0 0.0 0.00 0.00 0.00 87 1013.6
20260507033500 46 87 4.0 0.0 0.00 0.00 0.00 86 1013.5
20260507030500 47 116 6.0 0.0 0.00 0.00 0.00 87 1013.3
20260507023500 47 81 3.0 0.0 0.00 0.00 0.00 88 1013.0
20260507020500 47 57 2.0 0.0 0.00 0.00 0.00 88 1012.8
20260507013500 48 77 2.0 0.0 0.00 0.00 0.00 88 1012.5
20260507010500 48 43 4.0 0.0 0.00 0.00 0.00 89 1012.2
20260507003500 48 52 3.0 0.0 0.00 0.00 0.00 88 1012.2
20260507000500 48 69 2.0 0.0 0.00 0.00 0.00 88 1012.1
20260506233500 48 77 5.0 0.0 0.00 0.00 0.00 87 1012.2
20260506230500 48 66 2.0 0.0 0.00 0.00 0.00 86 1012.0
20260506223500 49 46 3.0 0.0 0.00 0.00 0.00 84 1012.0
20260506220500 49 55 4.0 0.0 0.00 0.00 0.00 83 1011.6
20260506213500 49 75 3.0 0.0 0.00 0.00 0.00 80 1011.6
20260506210500 50 69 3.0 0.0 0.00 0.00 0.00 74 1011.4
20260506203500 50 44 4.0 0.0 0.00 0.00 0.00 73 1011.4
20260506200500 50 65 1.0 0.0 0.00 0.00 0.00 74 1011.1
20260506193500 50 44 0.0 0.0 0.00 0.00 0.00 81 1010.8
20260506190500 50 95 0.0 0.0 0.00 0.00 0.00 84 1010.5
20260506183500 51 81 1.0 0.0 0.00 0.00 0.00 81 1010.2
20260506180500 51 89 2.0 0.0 0.00 0.00 0.00 78 1009.9
20260506173500 51 96 4.0 0.0 0.00 0.00 0.00 77 1009.7
20260506170500 51 117 3.0 0.0 0.00 0.00 0.00 77 1009.8
20260506163500 51 110 1.0 0.0 0.00 0.00 0.00 79 1009.8
20260506160500 52 72 0.0 0.0 0.00 0.00 0.00 83 1010.0
20260506153500 51 66 1.0 0.0 0.00 0.00 0.00 80 1010.0
20260506150500 51 77 2.0 0.0 0.00 0.00 0.00 77 1009.9
20260506143500 51 56 3.0 0.0 0.00 0.00 0.00 72 1010.1
20260506140500 52 114 6.0 0.0 0.00 0.00 0.00 67 1010.0
20260506133500 53 120 7.0 0.0 0.00 0.00 0.00 60 1009.9
20260506130500 54 95 4.0 0.0 0.00 0.00 0.00 56 1009.7
20260506123500 55 96 7.0 0.0 0.00 0.00 0.00 50 1009.4
20260506120500 56 99 5.0 0.0 0.00 0.00 0.00 48 1009.2
20260506113500 55 60 6.0 0.0 0.00 0.00 0.00 48 1009.2
20260506110500 54 87 4.0 0.0 0.00 0.00 0.00 54 1009.4
20260506103500 53 46 3.0 0.0 0.00 0.00 0.00 58 1009.3
20260506100500 52 65 2.0 0.0 0.00 0.00 0.00 59 1009.5
20260506093500 52 48 5.0 0.0 0.00 0.00 0.00 57 1009.4
20260506090500 51 66 9.0 0.0 0.00 0.00 0.00 59 1009.3